星链-30804 (STARLINK-30804 )

导读

STARLINK-30804是美国太空探索技术公司SpaceX星链星座的组网卫星,于2023年10月29日发射入轨,属于星链星座低轨卫星互联网部署的组成部分。星链计划旨在搭建全球覆盖的太空互联网,该卫星承担着为地面用户提供宽带网络通信服务的任务,进一步扩充了星链星座的在轨规模。

Basic Information
目录编号:
58155
目录名称:
STARLINK-30804
国际标识:
2023-166F
轨道中心:
EARTH
卫星名称:
星链-30804
卫星全名:
星链-30804 (STARLINK-30804 )
卫星状态:
在轨 (已飞行963 天)
发射日期:
2023-10-29 UTC
国别 :
美国 (US)
星等 :
--
Orbit Information
数据来源 国际轨道数据 AOE轨道数据
星历时间 2026-06-17T10:38:27+0800
1天前
查看轨道信息
2026-06-14T03:00:00+0800
4天前
查看轨道信息
半长轴 6848.716km 6848.856km
偏心率 0.0001224 0.0001161
轨道倾角 53.161° 53.160°
近地点辐角 43.223° 111.134°
升交点赤经 117.627° 133.071°
平近点角 316.886° 300.665°
近地点 469.74km 469.923km
远地点 471.418km 471.515km
周期 94.010分钟 94.013分钟
每日圈数 15.317541 15.317072
Detailed Information
固有亮度:
5
最大亮度:
0.3
卫星平台:
Starlink v2.0 mini
覆盖范围:
全球
运营商:
太空探索技术公司
运营商所在国:
美国
制造商(研发单位):
太空探索技术公司
制造商所在国:
美国
使用方式:
暂无
Satellite Introduction
星链(Starlink)计划是由太空探索技术公司(SpaceX)提出的一个巨型低轨卫星互联网星座项目,计划在2019年至2024年间在太空搭建由约1.2万颗卫星组成的“星链”网络,其中1584颗将部署在地球上空550千米处的近地轨道,并从2020年开始工作。该卫星仍在工作。
2D Orbit Map
3D Orbit Map
Orbit Altitude Analysis Chart
Orbit Inclination Analysis Chart
Orbit Comprehensive Analysis Chart
View Comprehensive Chart